Lapse_Rate
4.1 4.4 4.4 4.4 4.5 4.8 5.5 6.0 6.6 6.5 7.0 7.6 7.3 7.1 6.9 7.2 7.4 8.0 8.3 8.3 7.9 7.9 7.7 7.9 7.7 7.4 7.5 7.7 7.7 7.5 7.2 7.0 6.9 7.0 6.9 7.3 7.1 6.9 6.8 6.8 6.9 6.9 6.5 7.0
3.8 4.4 4.9 4.6 4.7 5.3 5.7 6.4 7.0 7.2 7.1 7.2 7.7 7.4 7.9 8.5 8.4 8.1 8.2 7.7 7.4 7.4 7.4 7.5 7.7 7.6 7.6 7.6 7.8 7.8 7.8 7.8 7.4 7.1 7.4 7.1 6.8 6.7 6.7 6.3 6.6 6.8 7.0 6.7
3.6 4.5 5.1 4.3 5.3 6.1 6.7 6.9 7.0 7.3 7.2 7.5 7.9 8.0 8.2 8.1 8.2 7.2 7.4 7.6 7.5 7.2 7.1 7.3 7.6 7.5 7.4 7.4 7.5 7.6 7.7 7.5 7.3 6.7 6.1 6.4 6.6 6.5 6.6 6.5 6.7 6.7 6.7 7.0
5.2 5.3 4.8 5.8 6.7 7.1 7.2 7.2 7.3 7.6 7.6 7.7 8.0 8.0 7.5 7.2 7.0 7.2 6.8 7.4 7.4 7.2 7.5 7.3 7.2 7.2 7.4 7.2 7.3 7.6 7.7 7.8 7.3 5.9 5.1 5.6 6.3 6.5 6.3 6.4 6.5 6.4 6.7 6.7
6.2 6.9 7.0 6.9 7.4 7.4 7.5 7.7 7.9 8.1 7.8 7.9 8.0 7.7 7.6 7.1 7.1 7.0 7.1 7.1 7.1 7.2 7.3 7.5 7.8 7.4 7.4 7.3 7.1 7.4 7.7 7.5 6.9 6.1 5.5 5.8 6.2 6.1 6.1 6.0 6.1 5.9 6.0 5.7
7.0 7.2 7.4 8.3 8.4 8.4 7.8 7.7 8.0 7.7 7.6 7.7 7.9 7.4 7.5 7.1 7.0 7.1 7.1 7.1 7.0 7.2 7.2 6.8 7.1 7.3 7.7 7.5 7.2 7.1 7.3 7.4 7.2 6.6 6.2 6.1 6.0 5.8 5.4 5.0 5.1 5.1 5.2 5.3
8.1 8.0 8.2 8.1 8.2 7.6 7.7 8.1 8.1 8.0 7.8 7.4 7.7 7.0 6.9 7.0 7.1 7.0 7.0 7.1 7.1 7.2 7.3 7.0 6.9 7.0 7.3 7.4 7.1 6.8 6.9 7.2 7.6 6.5 6.1 6.0 5.7 5.5 5.3 5.0 4.8 4.5 4.4 4.7
8.0 7.8 7.9 8.1 7.9 8.1 7.8 8.1 8.1 8.1 7.7 7.4 7.2 7.0 6.8 6.9 7.2 7.0 7.1 7.6 7.5 7.2 7.4 7.4 6.9 6.8 7.0 7.1 6.8 6.7 6.7 7.0 7.2 7.1 6.2 5.9 5.7 5.5 5.2 4.7 4.5 4.5 4.5 4.4
8.3 8.4 8.6 8.4 8.4 8.3 8.3 8.1 8.1 7.6 7.3 6.9 6.9 6.6 6.7 6.8 7.1 7.3 7.5 7.7 7.4 7.3 7.5 7.3 7.0 7.1 6.8 6.7 6.7 6.8 6.8 6.9 7.0 7.2 6.6 6.2 5.9 5.5 5.3 5.2 5.1 5.0 4.8 4.8
8.4 8.5 8.7 8.7 8.5 8.1 7.6 7.6 7.5 7.4 7.0 6.9 6.6 6.8 6.8 6.9 7.0 7.1 7.2 7.4 7.4 7.5 7.5 7.4 7.1 6.8 6.8 6.7 6.7 6.7 6.7 6.7 7.0 6.8 6.7 6.2 5.9 5.9 5.5 5.4 5.3 5.0 5.0 5.2
8.1 8.3 8.2 8.1 7.3 7.2 7.2 7.2 7.0 6.9 6.9 6.9 6.7 6.8 6.7 6.7 6.7 6.8 7.0 7.1 7.1 7.1 7.2 7.1 7.2 6.8 6.9 7.1 6.9 6.8 6.7 6.6 6.7 6.8 7.0 7.0 6.1 6.0 5.9 5.7 5.6 5.7 5.9 5.9
7.6 7.6 7.6 7.4 6.8 6.8 7.2 7.3 7.1 7.0 7.1 7.2 7.0 6.9 6.7 6.7 6.6 6.7 6.8 6.9 7.0 7.1 7.2 7.2 7.4 7.3 7.1 7.0 7.1 7.4 7.0 6.8 6.6 6.6 6.6 6.4 6.8 6.5 6.2 5.9 5.7 5.6 6.1 6.0
7.0 7.0 7.1 7.0 6.9 7.1 7.2 7.0 7.1 7.0 7.1 7.0 7.0 6.8 6.8 6.9 7.0 7.2 7.4 7.4 7.5 7.5 7.5 7.5 7.4 7.2 7.1 7.2 7.1 7.5 7.3 7.1 6.7 6.5 6.5 6.5 6.5 6.9 6.8 6.3 6.0 6.0 6.0 6.0
7.1 7.0 7.0 7.0 7.2 7.3 7.2 7.2 7.1 7.2 7.1 7.0 6.9 6.9 6.9 7.0 7.1 7.3 7.4 7.5 7.5 7.4 7.4 7.4 7.4 7.4 7.4 7.4 7.3 7.2 7.5 7.5 7.1 6.9 6.5 6.4 6.4 6.4 6.6 6.4 6.6 6.4 6.3 6.3
6.9 7.0 7.0 7.0 7.1 7.2 7.3 7.4 7.3 7.3 7.2 7.0 6.9 7.0 7.2 7.3 7.2 7.4 7.4 7.5 7.5 7.5 7.5 7.4 7.4 7.3 7.2 7.3 7.1 7.3 7.2 7.3 7.2 6.9 6.8 6.4 6.3 6.3 6.4 6.0 6.1 6.4 6.4 6.3
7.0 7.1 7.2 7.3 7.2 7.3 7.2 7.2 7.2 7.2 7.1 7.1 7.2 7.3 7.4 7.3 7.2 7.3 7.4 7.4 7.5 7.6 7.7 7.7 7.5 7.4 7.3 7.3 7.0 6.9 6.6 6.2 6.3 6.4 6.5 6.4 6.2 6.4 6.3 6.1 6.0 6.2 6.4 6.4
7.3 7.3 7.2 7.2 7.2 7.1 7.2 7.3 7.4 7.4 7.5 7.4 7.4 7.3 7.3 7.3 7.3 7.4 7.4 7.4 7.4 7.4 7.4 7.6 7.6 7.6 7.3 7.1 7.0 6.6 6.4 6.3 6.5 6.5 6.6 6.6 6.4 6.4 6.5 6.3 6.0 6.0 6.1 6.2
7.4 7.5 7.5 7.4 7.3 7.3 7.2 7.2 7.3 7.1 7.2 7.3 7.4 7.3 7.2 7.3 7.4 7.5 7.5 7.4 7.4 7.4 7.4 7.5 7.6 7.5 7.5 7.1 7.0 6.7 6.6 6.6 6.7 6.9 6.5 6.4 6.4 6.3 6.5 6.1 6.0 5.9 5.8 5.8
7.0 7.0 7.1 7.2 7.2 7.3 7.2 7.2 7.3 7.3 7.3 7.2 7.2 7.2 7.2 7.3 7.3 7.3 7.4 7.3 7.3 7.4 7.4 7.5 7.5 7.5 7.4 7.2 6.9 6.9 6.8 6.8 6.7 6.4 5.8 6.0 5.9 6.1 6.1 6.1 5.9 5.8 5.8 5.7
6.7 7.0 7.1 7.1 7.2 7.2 7.2 7.1 7.2 7.2 7.1 7.1 7.1 7.0 7.1 7.1 7.1 7.1 7.2 7.2 7.1 7.1 7.1 7.2 7.3 7.3 7.3 7.3 7.0 6.7 6.4 6.4 6.5 6.3 6.1 5.9 5.9 6.0 6.0 6.0 5.8 5.8 5.7 5.7
6.8 6.9 7.0 7.2 7.3 7.2 7.3 7.4 7.4 7.4 7.3 7.1 7.2 7.1 7.2 7.1 6.9 6.8 6.8 6.9 6.9 6.9 6.8 6.7 6.9 7.1 7.1 7.1 7.1 6.8 6.6 6.5 6.4 6.2 6.0 6.0 6.0 5.8 5.8 5.9 6.0 5.9 5.8 5.8
7.2 7.2 7.3 7.3 7.4 7.4 7.3 7.1 7.1 7.2 7.3 7.2 6.9 6.8 6.9 6.9 6.9 6.8 6.7 6.8 6.9 6.9 6.8 6.7 6.6 6.7 6.8 6.9 7.0 6.9 6.8 6.7 6.5 6.3 6.2 6.0 6.0 5.9 5.8 5.7 5.7 5.7 5.8 6.0
6.9 7.0 7.1 7.1 7.0 7.1 7.1 6.9 7.0 6.9 7.0 6.9 6.7 6.7 6.9 7.1 6.9 6.9 6.9 6.8 6.8 6.8 6.7 6.6 6.6 6.7 6.6 6.6 6.8 6.9 6.7 6.7 6.6 6.4 6.2 6.1 6.0 5.9 5.9 5.9 6.0 6.0 6.1 6.0
7.0 6.9 6.9 6.8 6.8 6.8 6.7 6.6 6.6 6.6 6.5 6.5 6.5 6.4 6.5 6.6 6.7 6.5 6.5 6.6 6.8 6.8 6.8 6.7 6.7 6.5 6.7 6.6 6.6 6.7 6.8 6.7 6.6 6.5 6.4 6.2 6.1 6.0 5.8 5.8 5.9 5.9 6.0 6.0
6.9 6.8 6.7 6.7 6.6 6.5 6.5 6.4 6.4 6.4 6.5 6.6 6.6 6.5 6.3 6.2 6.3 6.7 6.8 6.7 6.6 6.7 6.7 6.7 6.6 6.6 6.7 6.8 6.6 6.6 6.6 6.7 6.7 6.6 6.4 6.4 6.3 6.3 6.2 6.1 6.0 6.0 6.0 6.1
6.6 6.5 6.4 6.4 6.3 6.1 6.2 6.1 5.9 5.8 6.0 6.0 6.0 6.1 6.2 6.2 6.3 6.3 6.4 6.4 6.5 6.6 6.7 6.7 6.7 6.6 6.7 6.9 6.9 6.8 6.6 6.6 6.6 6.6 6.5 6.4 6.3 6.3 6.3 6.3 6.3 6.3 6.2 6.2
5.8 5.7 5.7 5.6 5.6 5.7 5.5 5.6 5.5 5.5 5.5 5.5 5.5 5.7 5.8 5.9 5.8 5.8 5.8 6.0 6.2 6.3 6.4 6.6 6.6 6.7 6.7 6.8 7.0 7.0 6.9 6.7 6.7 6.6 6.5 6.4 6.4 6.3 6.3 6.3 6.2 6.2 6.1 6.1
Wind_Speed
9 11 11 14 13 9 13 14 13 18 19 20 8 12 15 16 19 21 20 19 15 10 9 8 6 8 7 7 6 5 5 5 5 5 6 6 7 9 10 11 12 10 12 13
11 9 14 19 13 14 16 19 19 19 18 10 12 11 13 17 17 21 21 18 19 14 11 6 5 6 4 5 3 4 5 6 5 4 5 7 8 10 9 10 12 14 15 16
16 8 10 10 5 13 17 18 12 10 4 9 11 12 14 19 17 18 19 19 19 12 8 5 5 3 2 3 4 5 4 4 5 5 5 4 6 8 9 10 12 13 15 15
8 8 11 6 9 12 9 4 8 4 6 8 10 14 17 13 10 13 17 21 14 11 8 9 4 3 4 0 2 3 3 3 3 2 2 3 6 7 7 9 12 12 12 12
5 11 12 17 6 2 5 4 4 1 9 11 14 14 16 13 15 21 21 18 18 16 12 7 7 6 5 2 1 3 2 1 0 3 5 5 6 7 7 9 9 9 10 14
3 3 5 1 2 3 7 8 2 2 4 9 13 11 13 20 19 22 22 15 8 7 14 5 6 6 5 3 1 1 2 2 2 3 5 6 7 8 6 8 9 8 9 9
11 7 5 1 6 8 3 4 3 0 4 9 7 6 17 20 15 16 16 18 17 19 7 8 3 7 5 5 2 3 3 4 4 4 5 8 7 8 8 9 10 10 11 10
2 2 5 10 7 6 7 3 3 4 5 9 12 14 14 16 18 20 19 18 19 17 16 16 4 5 5 5 4 5 4 5 5 5 6 7 10 8 9 10 11 10 11 9
5 4 8 2 6 3 3 3 3 3 10 11 12 12 12 13 16 17 17 15 16 16 15 16 7 6 5 5 6 5 5 5 6 5 6 8 10 10 8 8 9 9 8 8
3 3 5 7 4 5 3 2 6 6 11 12 10 11 12 13 14 15 15 16 16 16 16 15 16 3 5 7 6 6 6 5 5 6 6 7 7 8 9 7 8 8 8 9
5 6 4 4 4 3 3 7 9 10 9 6 5 8 10 11 12 12 13 14 14 14 13 15 13 7 1 8 7 6 5 6 5 5 7 5 5 6 8 8 10 10 9 10
5 5 3 2 7 2 2 6 9 5 6 7 7 8 10 9 10 11 12 12 12 14 14 14 11 11 6 2 5 6 5 6 6 5 5 5 5 6 7 9 14 14 16 11
1 2 0 4 7 6 5 4 5 5 6 5 6 7 9 9 11 12 12 13 14 15 14 13 12 9 9 10 4 5 6 6 6 7 6 6 7 8 8 8 13 18 19 19
5 3 1 5 3 2 5 5 7 6 6 6 6 8 9 9 10 12 12 12 13 14 14 13 12 11 9 9 9 8 7 10 7 8 8 7 7 8 8 10 9 9 15 15
4 1 4 3 2 5 5 6 6 6 5 5 4 5 9 11 12 12 12 12 13 11 13 12 11 10 11 10 11 11 7 7 6 6 7 8 7 8 8 9 8 9 9 11
1 4 3 5 4 6 5 3 3 4 3 4 6 8 9 9 10 11 10 11 11 10 11 11 12 12 13 12 9 4 2 6 6 5 6 7 7 9 8 9 10 9 9 10
4 3 3 4 3 3 4 5 5 3 6 6 6 9 9 11 10 11 11 9 9 8 7 11 12 11 10 9 5 2 1 3 6 5 6 6 7 9 8 9 9 9 8 11
5 3 2 2 4 5 6 2 5 5 4 4 5 8 6 7 9 10 9 9 9 5 7 12 11 11 9 8 4 1 0 2 4 4 6 6 7 7 8 9 9 9 9 9
3 4 5 5 5 4 5 5 4 4 5 5 6 6 5 6 8 10 8 9 8 10 12 10 13 12 9 7 4 1 1 2 2 4 5 7 8 8 8 9 9 9 11 11
3 5 4 4 5 5 4 4 6 5 6 7 8 6 5 6 8 9 10 9 6 6 10 12 11 8 10 6 5 2 2 2 3 3 4 6 7 7 8 10 10 9 10 11
4 4 3 4 3 4 4 5 4 5 6 4 5 6 6 6 3 8 6 6 6 10 9 11 9 6 7 6 4 2 0 3 3 4 5 5 6 7 8 9 9 10 10 10
5 4 4 5 3 4 6 5 5 5 4 5 6 5 4 6 4 6 5 4 7 12 9 8 8 12 8 10 3 2 2 1 3 3 5 5 6 7 8 9 10 9 9 10
5 5 4 3 4 6 6 7 3 2 3 4 4 5 6 4 4 6 7 7 7 10 10 8 11 13 12 6 5 3 3 3 3 4 4 5 6 7 7 8 8 9 9 10
4 5 5 5 5 6 7 5 1 4 3 2 3 2 4 5 4 3 3 7 10 12 8 8 10 13 14 6 7 5 3 3 4 4 4 6 5 6 7 7 9 8 9 10
4 4 5 5 5 4 5 3 4 4 5 5 5 5 6 4 2 6 5 5 9 7 6 8 9 9 7 7 7 6 5 4 4 4 5 5 6 6 7 8 9 9 9 9
4 4 3 5 5 4 3 4 3 3 5 5 5 4 5 5 7 6 7 8 7 7 6 4 6 6 5 7 8 8 5 4 4 5 6 6 6 6 7 8 8 9 9 9
4 5 4 4 3 4 4 3 2 3 3 2 3 4 7 7 7 8 8 6 5 5 5 6 6 7 7 8 8 8 6 5 6 5 5 6 6 6 7 8 8 8 9 9
Wind_Direction
262 282 293 287 285 303 288 284 274 282 288 292 5 333 327 324 320 317 315 312 309 282 256 260 251 263 273 259 253 248 251 234 232 252 229 211 200 208 196 179 168 155 142 142
268 258 265 269 270 266 267 267 271 274 281 8 337 327 310 314 323 312 314 309 302 277 259 211 239 267 326 347 35 5 331 309 297 234 228 214 199 184 172 164 157 159 157 147
267 261 285 276 229 262 266 267 291 281 11 346 314 312 318 314 312 312 312 304 291 277 285 270 258 163 103 324 342 351 337 320 270 238 219 179 156 147 146 151 152 152 147 145
271 295 269 258 228 263 286 26 66 46 325 308 311 311 298 302 318 299 287 302 317 309 290 282 176 152 146 17 38 333 319 322 345 89 93 91 118 129 123 133 136 135 131 132
240 248 271 295 319 29 34 9 65 272 334 325 320 308 322 343 323 312 308 290 284 271 283 286 172 175 152 142 108 67 5 288 72 135 132 123 118 121 125 127 125 126 129 133
231 228 252 351 76 270 305 267 48 162 290 312 322 341 314 324 316 302 314 322 323 285 285 281 200 162 152 159 338 36 182 189 154 133 131 123 120 117 114 119 114 114 113 120
228 245 243 76 348 298 216 249 266 234 281 314 313 290 291 300 307 330 333 341 358 342 325 305 193 160 160 150 139 101 132 126 131 122 128 123 119 121 119 121 118 121 119 122
216 275 293 185 180 145 212 235 272 306 300 325 313 303 314 325 335 334 334 351 354 345 346 337 146 124 148 121 115 116 123 126 123 128 131 138 131 127 128 130 126 128 130 128
179 234 307 129 195 245 123 187 242 274 313 329 304 312 337 335 331 331 341 349 350 342 358 7 353 80 112 141 128 122 124 131 125 125 131 146 141 133 131 139 133 136 135 136
8 236 275 293 135 138 155 221 294 306 336 303 321 337 339 335 336 340 345 345 347 348 352 356 351 16 136 139 138 136 134 142 136 138 138 145 148 149 143 141 140 137 138 140
266 279 287 310 227 207 59 347 316 326 297 341 336 328 340 335 336 332 333 344 348 346 348 346 1 350 240 146 154 141 142 153 153 150 157 154 152 163 158 151 152 149 153 153
236 267 192 281 335 276 79 300 300 290 332 342 350 348 332 336 336 335 336 345 344 344 340 338 359 4 350 12 157 148 152 168 167 163 163 161 146 141 133 133 143 141 142 149
193 55 234 324 322 36 49 337 1 338 44 9 359 350 337 336 334 335 345 348 346 342 338 332 346 354 5 345 330 186 185 182 174 171 173 168 159 158 149 156 146 142 143 147
106 75 353 37 338 338 44 21 360 12 29 8 352 343 349 345 344 339 335 347 345 341 343 335 332 328 331 329 316 284 201 194 188 179 176 169 165 161 158 162 158 152 148 148
32 179 203 277 328 43 32 17 8 359 355 340 332 355 359 349 339 336 336 339 343 339 340 339 329 322 328 316 300 279 232 189 188 182 173 165 158 155 156 158 156 152 149 150
93 71 77 79 52 38 20 356 340 309 317 360 14 5 352 335 327 334 338 337 335 336 340 334 329 321 325 322 313 320 143 157 166 174 168 160 159 157 154 151 147 150 155 154
134 98 64 53 46 333 294 276 322 23 54 27 3 342 332 338 337 341 337 328 314 311 338 340 328 323 321 319 301 311 98 147 157 159 170 171 164 161 156 151 152 151 150 157
120 114 123 254 266 271 287 48 65 42 42 23 4 341 321 326 341 332 325 317 314 305 353 344 336 331 325 321 311 297 150 150 159 162 168 162 161 155 150 147 148 146 147 153
164 203 213 246 287 359 19 48 51 11 5 346 327 306 294 309 334 331 318 314 337 352 345 336 335 342 334 328 318 286 145 142 136 144 153 151 152 156 156 155 154 153 153 156
48 31 23 20 13 25 336 325 323 310 299 309 310 304 297 326 333 335 327 325 360 342 335 331 331 333 337 321 328 315 171 153 149 146 148 154 159 156 155 157 157 156 159 164
7 6 325 324 306 294 272 267 263 264 272 260 282 275 267 279 314 337 323 327 329 345 336 334 331 325 335 320 311 306 298 163 162 161 163 166 160 160 157 159 160 162 166 167
323 321 315 297 243 270 282 270 247 241 263 288 288 278 286 291 284 332 294 315 334 342 341 339 335 330 325 327 291 279 236 191 166 158 160 157 165 163 165 166 170 170 169 169
311 319 324 335 303 297 293 306 315 332 289 278 296 335 335 322 337 353 340 338 329 337 340 333 327 334 325 325 308 271 231 209 191 182 174 171 170 171 171 174 173 166 168 171
360 347 329 324 342 340 334 316 264 289 282 345 37 356 13 343 323 310 308 314 322 323 326 314 328 335 328 322 323 288 261 218 200 189 183 178 177 171 174 172 171 170 168 171
292 297 303 313 317 300 296 324 342 334 354 9 0 355 351 337 287 322 310 312 308 308 309 295 309 321 329 321 319 310 288 237 210 197 193 190 185 181 178 174 175 172 170 172
283 291 282 315 315 303 355 17 341 10 9 353 342 336 331 324 314 306 319 303 302 306 303 304 302 302 310 321 312 306 285 257 227 209 197 192 188 183 179 174 171 173 172 172
0 360 356 340 348 3 349 356 10 340 341 320 306 309 310 311 318 312 304 297 297 303 308 310 310 307 305 316 312 305 286 259 232 215 199 192 187 185 179 176 175 172 171 172